TimeCST,TemperatureF,Dew PointF,Humidity,Sea Level PressureIn,VisibilityMPH,Wind Direction,Wind SpeedMPH,Gust SpeedMPH,PrecipitationIn,Events,Conditions,WindDirDegrees,DateUTC
12:01 AM,15.8,10.4,79,29.62,4.0,SE,15.0,-,N/A,,Overcast,140,2014-01-18 06:01:00
12:41 AM,17.6,12.2,79,29.58,4.0,SE,17.3,-,N/A,,Overcast,130,2014-01-18 06:41:00
1:01 AM,17.6,12.2,79,29.55,2.5,SE,17.3,-,N/A,,Overcast,130,2014-01-18 07:01:00
1:21 AM,17.6,12.2,79,29.52,2.0,SE,19.6,-,N/A,,Overcast,140,2014-01-18 07:21:00
1:41 AM,17.6,14.0,86,29.52,3.0,SE,13.8,-,N/A,,Overcast,130,2014-01-18 07:41:00
2:01 AM,19.4,15.8,86,29.50,1.2,SE,13.8,-,N/A,,Overcast,140,2014-01-18 08:01:00
2:21 AM,19.4,15.8,86,29.49,1.8,SE,13.8,-,N/A,,Overcast,140,2014-01-18 08:21:00
2:41 AM,21.2,17.6,86,29.48,3.0,SE,15.0,-,N/A,,Overcast,140,2014-01-18 08:41:00
3:01 AM,19.4,15.8,86,29.47,1.2,SE,16.1,-,N/A,,Overcast,130,2014-01-18 09:01:00
3:21 AM,19.4,15.8,86,29.46,3.0,SE,15.0,-,N/A,,Overcast,140,2014-01-18 09:21:00
3:41 AM,19.4,15.8,86,29.45,4.0,SE,13.8,-,N/A,,Overcast,130,2014-01-18 09:41:00
4:01 AM,19.4,15.8,86,29.44,2.5,SE,13.8,-,N/A,,Overcast,130,2014-01-18 10:01:00
4:21 AM,19.4,15.8,86,29.43,4.0,SE,12.7,-,N/A,,Overcast,130,2014-01-18 10:21:00
5:01 AM,19.4,15.8,86,29.43,5.0,ESE,9.2,-,N/A,,Overcast,110,2014-01-18 11:01:00
5:21 AM,19.4,17.6,93,29.43,10.0,East,9.2,-,N/A,,Overcast,100,2014-01-18 11:21:00
6:01 AM,19.4,15.8,86,29.44,1.5,East,10.4,-,N/A,,Overcast,80,2014-01-18 12:01:00
6:21 AM,19.4,15.8,86,29.46,1.5,East,11.5,-,N/A,,Overcast,80,2014-01-18 12:21:00
6:41 AM,19.4,15.8,86,29.47,10.0,ENE,13.8,18.4,N/A,,Overcast,70,2014-01-18 12:41:00
7:01 AM,17.6,14.0,86,29.49,10.0,ENE,15.0,-,N/A,,Overcast,70,2014-01-18 13:01:00
7:21 AM,17.6,12.2,79,29.52,7.0,ENE,15.0,19.6,N/A,,Overcast,60,2014-01-18 13:21:00
7:41 AM,17.6,12.2,79,29.55,10.0,ENE,15.0,-,N/A,,Overcast,60,2014-01-18 13:41:00
8:01 AM,15.8,10.4,79,29.58,10.0,NE,18.4,25.3,N/A,,Overcast,40,2014-01-18 14:01:00
8:21 AM,15.8,10.4,79,29.62,7.0,NE,19.6,24.2,N/A,,Overcast,40,2014-01-18 14:21:00
8:41 AM,15.8,10.4,79,29.64,7.0,NE,17.3,-,N/A,,Overcast,50,2014-01-18 14:41:00
9:01 AM,15.8,10.4,79,29.66,10.0,NE,15.0,23.0,N/A,,Overcast,50,2014-01-18 15:01:00
9:21 AM,15.8,10.4,79,29.70,10.0,NNE,16.1,-,N/A,,Overcast,30,2014-01-18 15:21:00
9:41 AM,15.8,8.6,73,29.74,10.0,NNE,18.4,21.9,N/A,,Mostly Cloudy,30,2014-01-18 15:41:00
10:01 AM,15.8,8.6,73,29.75,7.0,NNE,20.7,25.3,N/A,,Clear,30,2014-01-18 16:01:00
10:21 AM,15.8,8.6,73,29.79,10.0,NNE,18.4,-,N/A,,Scattered Clouds,20,2014-01-18 16:21:00
10:41 AM,15.8,8.6,73,29.83,10.0,NNE,16.1,21.9,N/A,,Scattered Clouds,20,2014-01-18 16:41:00
11:01 AM,15.8,8.6,73,29.85,10.0,North,11.5,-,N/A,,Clear,10,2014-01-18 17:01:00
11:21 AM,15.8,8.6,73,29.86,10.0,North,15.0,-,N/A,,Mostly Cloudy,10,2014-01-18 17:21:00
11:41 AM,17.6,8.6,68,29.87,10.0,North,12.7,-,N/A,,Scattered Clouds,0,2014-01-18 17:41:00
12:01 PM,17.6,8.6,68,29.88,10.0,North,10.4,-,N/A,,Clear,0,2014-01-18 18:01:00
12:21 PM,17.6,10.4,73,29.89,10.0,NNW,12.7,-,N/A,,Clear,330,2014-01-18 18:21:00
12:41 PM,17.6,10.4,73,29.90,10.0,North,17.3,-,N/A,,Clear,350,2014-01-18 18:41:00
1:01 PM,17.6,10.4,73,29.89,10.0,North,15.0,-,N/A,,Clear,0,2014-01-18 19:01:00
1:21 PM,17.6,10.4,73,29.90,10.0,North,15.0,-,N/A,,Clear,350,2014-01-18 19:21:00
1:41 PM,19.4,10.4,68,29.89,10.0,North,10.4,-,N/A,,Clear,0,2014-01-18 19:41:00
2:01 PM,19.4,10.4,68,29.90,10.0,NNW,10.4,-,N/A,,Clear,340,2014-01-18 20:01:00
2:21 PM,19.4,10.4,68,29.93,10.0,NNW,12.7,-,N/A,,Clear,330,2014-01-18 20:21:00
2:41 PM,19.4,10.4,68,29.93,10.0,NW,13.8,-,N/A,,Clear,320,2014-01-18 20:41:00
3:01 PM,19.4,10.4,68,29.94,10.0,WNW,9.2,-,N/A,,Clear,300,2014-01-18 21:01:00
3:21 PM,17.6,10.4,73,29.95,10.0,WNW,11.5,-,N/A,,Clear,290,2014-01-18 21:21:00
3:41 PM,17.6,10.4,73,29.97,10.0,WNW,12.7,-,N/A,,Clear,290,2014-01-18 21:41:00
4:01 PM,17.6,10.4,73,29.97,10.0,WNW,11.5,-,N/A,,Clear,300,2014-01-18 22:01:00
4:21 PM,17.6,10.4,73,29.98,10.0,WNW,16.1,-,N/A,,Clear,300,2014-01-18 22:21:00
4:41 PM,15.8,8.6,73,29.98,10.0,WNW,12.7,-,N/A,,Clear,300,2014-01-18 22:41:00
5:01 PM,14.0,8.6,79,29.97,10.0,WNW,10.4,-,N/A,,Clear,300,2014-01-18 23:01:00
5:21 PM,14.0,8.6,79,29.96,10.0,WNW,11.5,-,N/A,,Clear,300,2014-01-18 23:21:00
5:41 PM,14.0,8.6,79,29.95,10.0,WNW,9.2,-,N/A,,Clear,290,2014-01-18 23:41:00
6:01 PM,12.2,8.6,85,29.96,10.0,West,9.2,-,N/A,,Clear,280,2014-01-19 00:01:00
6:21 PM,12.2,8.6,85,29.96,10.0,West,8.1,-,N/A,,Clear,270,2014-01-19 00:21:00
6:41 PM,14.0,8.6,79,29.95,10.0,West,9.2,-,N/A,,Clear,270,2014-01-19 00:41:00
7:01 PM,14.0,10.4,86,29.95,10.0,West,8.1,-,N/A,,Scattered Clouds,260,2014-01-19 01:01:00
7:21 PM,15.8,10.4,79,29.93,10.0,West,8.1,-,N/A,,Clear,270,2014-01-19 01:21:00
7:41 PM,15.8,10.4,79,29.91,10.0,West,8.1,-,N/A,,Clear,260,2014-01-19 01:41:00
8:01 PM,15.8,10.4,79,29.90,10.0,WSW,9.2,-,N/A,,Clear,250,2014-01-19 02:01:00
8:21 PM,15.8,12.2,86,29.89,10.0,West,6.9,-,N/A,,Clear,260,2014-01-19 02:21:00
8:41 PM,15.8,12.2,86,29.86,10.0,SW,9.2,-,N/A,,Scattered Clouds,230,2014-01-19 02:41:00
9:21 PM,17.6,14.0,86,29.81,10.0,SW,11.5,-,N/A,,Overcast,220,2014-01-19 03:21:00
9:41 PM,19.4,15.8,86,29.80,10.0,SW,11.5,-,N/A,,Scattered Clouds,220,2014-01-19 03:41:00
10:01 PM,19.4,15.8,86,29.78,10.0,SW,10.4,-,N/A,,Clear,220,2014-01-19 04:01:00
10:21 PM,19.4,15.8,86,29.77,10.0,SW,13.8,-,N/A,,Scattered Clouds,220,2014-01-19 04:21:00
10:41 PM,19.4,15.8,86,29.76,10.0,SW,15.0,-,N/A,,Scattered Clouds,230,2014-01-19 04:41:00
11:01 PM,21.2,17.6,86,29.74,10.0,SW,12.7,-,N/A,,Clear,220,2014-01-19 05:01:00
11:21 PM,23.0,19.4,86,29.73,10.0,SW,19.6,-,N/A,,Clear,230,2014-01-19 05:21:00
11:41 PM,24.8,19.4,80,29.72,10.0,SW,13.8,-,N/A,,Clear,230,2014-01-19 05:41:00